K5BV Weather Reports


Display with metric or nautical units.
time (UTC)temp
F
wind
direction
speed
MPH
gust
MPH
rain 1hr
in
rain 24hr
in
rain mn
in
humidity
%
barometer
mb
20260509185230 85 0 0.0 0.0 0.00 0.35 0.35 74 1010.2
20260509184230 85 0 0.0 0.0 0.00 0.35 0.35 74 1010.3
20260509183232 85 0 0.0 0.0 0.00 0.35 0.35 73 1010.3
20260509182231 84 0 0.0 0.0 0.00 0.35 0.35 74 1010.3
20260509181231 85 0 0.0 0.0 0.00 0.35 0.35 74 1010.5
20260509180231 84 0 0.0 0.0 0.00 0.35 0.35 76 1010.5
20260509175230 83 0 0.0 0.0 0.00 0.35 0.35 76 1010.3
20260509174231 83 0 0.0 0.0 0.00 0.35 0.35 76 1010.2
20260509173231 83 0 0.0 0.0 0.00 0.35 0.35 75 1010.3
20260509172231 82 0 0.0 0.0 0.00 0.35 0.35 72 1010.6
20260509171230 81 0 0.0 0.0 0.00 0.35 0.35 75 1010.5
20260509170241 82 0 0.0 0.0 0.00 0.35 0.35 75 1010.7
20260509163230 79 0 0.0 0.0 0.00 0.35 0.35 79 1011.2
20260509162231 78 0 0.0 0.0 0.00 0.35 0.35 82 1011.4
20260509161231 78 0 0.0 0.0 0.00 0.35 0.35 85 1011.5
20260509160231 77 0 0.0 0.0 0.00 0.35 0.35 85 1011.4
20260509155232 77 0 0.0 0.0 0.00 0.35 0.35 86 1011.0
20260509154230 76 0 0.0 0.0 0.00 0.35 0.35 88 1011.1
20260509151231 76 0 0.0 0.0 0.00 0.35 0.35 88 1010.4
20260509150231 76 0 0.0 0.0 0.00 0.35 0.35 88 1010.3
20260509145232 76 0 0.0 0.0 0.00 0.35 0.35 87 1010.0
20260509144231 76 0 0.0 0.0 0.00 0.35 0.35 86 1009.5
20260509143230 76 0 0.0 0.0 0.00 0.35 0.35 85 1009.4
20260509142231 75 0 0.0 0.0 0.00 0.35 0.35 87 1009.6
20260509141230 75 0 0.0 0.0 0.00 0.35 0.35 88 1009.9
20260509140231 75 0 0.0 0.0 0.00 0.35 0.35 88 1009.9
20260509135230 74 0 0.0 0.0 0.00 0.35 0.35 89 1009.9
20260509133231 73 0 0.0 0.0 0.01 0.35 0.35 94 1009.5
20260509132231 74 0 0.0 0.0 0.01 0.35 0.35 96 1009.8
20260509131241 73 0 0.0 0.0 0.01 0.35 0.35 96 1009.9
20260509130245 73 0 0.0 0.0 0.03 0.35 0.35 96 1010.1
20260509125448 74 0 0.0 0.0 0.06 0.35 0.35 96 1011.2
20260509124230 75 0 0.0 0.0 0.06 0.34 0.34 96 1011.8
20260509123231 75 0 0.0 0.0 0.08 0.34 0.34 96 1011.4
20260509122233 73 0 0.0 0.0 0.10 0.34 0.34 96 1010.9
20260509121232 74 0 0.0 0.0 0.10 0.34 0.34 97 1010.0
20260509120233 73 0 0.0 0.0 0.19 0.33 0.33 97 1012.0
20260509115232 72 0 0.0 0.0 0.20 0.31 0.31 97 1013.1
20260509114232 73 0 0.0 0.0 0.21 0.29 0.29 97 1012.9
20260509113232 73 0 0.0 0.0 0.24 0.28 0.28 97 1012.9
20260509112232 73 0 0.0 0.0 0.23 0.26 0.26 97 1012.9
20260509111232 72 0 0.0 0.0 0.22 0.24 0.24 97 1013.2
20260509110232 77 0 0.0 0.0 0.14 0.14 0.14 98 1013.1
20260509105233 77 0 0.0 0.0 0.11 0.11 0.11 97 1012.8
20260509104232 77 0 0.0 0.0 0.08 0.08 0.08 97 1012.7
20260509103232 77 0 0.0 0.0 0.04 0.04 0.04 97 1012.5
20260509102232 77 0 0.0 0.0 0.03 0.03 0.03 97 1011.8
20260509100232 77 0 0.0 0.0 0.00 0.00 0.00 97 1011.4
20260509095232 77 0 0.0 0.0 0.00 0.00 0.00 97 1010.7
20260509094232 77 0 0.0 0.0 0.00 0.00 0.00 97 1010.1
20260509093232 77 0 0.0 0.0 0.00 0.00 0.00 97 1009.8
20260509092232 77 0 0.0 0.0 0.00 0.00 0.00 97 1009.5
20260509091232 77 0 0.0 0.0 0.00 0.00 0.00 97 1009.1
20260509090233 77 0 0.0 0.0 0.00 0.00 0.00 97 1008.9
20260509085232 77 0 0.0 0.0 0.00 0.00 0.00 97 1009.2
20260509084232 77 0 0.0 0.0 0.00 0.00 0.00 97 1009.4
20260509083232 77 0 0.0 0.0 0.00 0.00 0.00 97 1009.3
20260509082232 77 0 0.0 0.0 0.00 0.00 0.00 97 1009.7
20260509081232 77 0 0.0 0.0 0.00 0.00 0.00 97 1009.7
20260509080232 77 0 0.0 0.0 0.00 0.00 0.00 97 1009.5
20260509075232 77 0 0.0 0.0 0.00 0.00 0.00 96 1009.8
20260509074233 77 0 0.0 0.0 0.00 0.00 0.00 96 1009.7
20260509073232 78 0 0.0 0.0 0.00 0.00 0.00 96 1009.7
20260509072232 78 0 0.0 0.0 0.00 0.00 0.00 96 1009.6
20260509071233 78 0 0.0 0.0 0.00 0.00 0.00 96 1009.8
20260509070232 78 0 0.0 0.0 0.00 0.00 0.00 96 1009.7
20260509065233 78 0 0.0 0.0 0.00 0.00 0.00 97 1010.4
20260509064232 77 0 0.0 0.0 0.00 0.00 0.00 97 1010.6
20260509063232 78 0 0.0 0.0 0.00 0.00 0.00 97 1010.5
20260509062232 77 0 0.0 0.0 0.00 0.00 0.00 97 1010.5
20260509061233 77 0 0.0 0.0 0.00 0.00 0.00 97 1010.4
20260509060232 78 0 0.0 0.0 0.00 0.00 0.00 97 1010.7
20260509055232 78 0 0.0 0.0 0.00 0.00 0.00 97 1010.7
20260509054231 78 0 0.0 0.0 0.00 0.00 0.00 97 1010.7
20260509053232 78 0 0.0 0.0 0.00 0.00 0.00 97 1010.5
20260509052232 78 0 0.0 0.0 0.00 0.00 0.00 97 1010.5
20260509051232 78 0 0.0 0.0 0.00 0.00 0.00 97 1010.7
20260509050236 78 0 0.0 0.0 0.00 0.00 0.00 97 1010.9
20260509045231 78 0 0.0 0.0 0.00 0.00 0.00 97 1010.9
20260509044232 78 0 0.0 0.0 0.00 0.00 0.00 96 1010.7
20260509043232 78 0 0.0 0.0 0.00 0.00 0.00 96 1010.5
20260509042233 78 0 0.0 0.0 0.00 0.00 0.00 96 1010.9
20260509041232 78 0 0.0 0.0 0.00 0.00 0.00 96 1010.7
20260509040232 78 0 0.0 0.0 0.00 0.00 0.00 96 1010.7
20260509034232 78 0 0.0 0.0 0.00 0.00 0.00 96 1010.3
20260509033232 78 0 0.0 0.0 0.00 0.00 0.00 96 1010.2
20260509031233 78 0 0.0 0.0 0.00 0.00 0.00 96 1009.6
20260509030232 78 0 0.0 0.0 0.00 0.00 0.00 96 1009.6
20260509025232 79 0 0.0 0.0 0.00 0.00 0.00 96 1009.8
20260509024232 78 0 0.0 0.0 0.00 0.00 0.00 96 1009.5
20260509023231 78 0 0.0 0.0 0.00 0.00 0.00 96 1009.1
20260509022233 78 0 0.0 0.0 0.00 0.00 0.00 96 1008.8
20260509021232 78 0 0.0 0.0 0.00 0.00 0.00 96 1008.6
20260509020233 78 0 0.0 0.0 0.00 0.00 0.00 96 1008.6
20260509015232 78 0 0.0 0.0 0.00 0.00 0.00 96 1008.2
20260509014232 78 0 0.0 0.0 0.00 0.00 0.00 96 1008.2
20260509013232 78 0 0.0 0.0 0.00 0.00 0.00 96 1008.0
20260509012231 78 0 0.0 0.0 0.00 0.00 0.00 96 1008.0
20260509010232 78 0 0.0 0.0 0.00 0.00 0.00 96 1007.8
20260509004233 78 0 0.0 0.0 0.00 0.00 0.00 96 1007.7
20260509003232 78 0 0.0 0.0 0.00 0.00 0.00 96 1007.9
20260509002231 79 0 0.0 0.0 0.00 0.00 0.00 96 1007.9
20260509001232 79 0 0.0 0.0 0.00 0.00 0.00 96 1008.0
20260509000234 79 0 0.0 0.0 0.00 0.00 0.00 96 1007.8
20260508235233 78 0 0.0 0.0 0.00 0.00 0.00 96 1007.6
20260508234233 79 0 0.0 0.0 0.00 0.00 0.00 96 1007.5
20260508233234 79 0 0.0 0.0 0.00 0.00 0.00 96 1007.7
20260508232235 79 0 0.0 0.0 0.00 0.00 0.00 96 1007.8
20260508231235 79 0 0.0 0.0 0.00 0.00 0.00 95 1007.5
20260508230233 79 0 0.0 0.0 0.00 0.00 0.00 95 1007.5
20260508225233 79 0 0.0 0.0 0.00 0.00 0.00 95 1007.7
20260508224233 79 0 0.0 0.0 0.00 0.00 0.00 95 1007.7
20260508223233 79 0 0.0 0.0 0.00 0.00 0.00 95 1008.0
20260508222233 79 0 0.0 0.0 0.00 0.00 0.00 94 1008.2
20260508221232 79 0 0.0 0.0 0.00 0.00 0.00 94 1008.3
20260508214234 80 0 0.0 0.0 0.00 0.00 0.00 94 1008.6
20260508213233 80 0 0.0 0.0 0.00 0.00 0.00 94 1008.7
20260508212233 80 0 0.0 0.0 0.00 0.00 0.00 94 1008.9
20260508211233 80 0 0.0 0.0 0.00 0.00 0.00 94 1008.9
20260508210233 80 0 0.0 0.0 0.00 0.00 0.00 92 1008.9
20260508205233 81 0 0.0 0.0 0.00 0.00 0.00 91 1009.1
20260508204234 82 0 0.0 0.0 0.00 0.00 0.00 88 1009.3
20260508203234 82 0 0.0 0.0 0.00 0.00 0.00 88 1009.4
20260508202232 82 0 0.0 0.0 0.00 0.00 0.00 87 1009.5
20260508201233 82 0 0.0 0.0 0.00 0.00 0.00 87 1009.6
20260508200233 82 0 0.0 0.0 0.00 0.00 0.00 86 1009.7
20260508194233 83 0 0.0 0.0 0.00 0.00 0.00 87 1009.9
20260508193233 82 0 0.0 0.0 0.00 0.00 0.00 88 1010.0
20260508192233 83 0 0.0 0.0 0.00 0.00 0.00 87 1010.1
20260508190233 83 0 0.0 0.0 0.00 0.00 0.00 86 1010.4